Columbia / Mount Pleasant, TN

11:58 PM CDT on April 26, 2017 (GMT -0500)
Maury County

Weather History for KMRC - June, 2013

Change the Weather History Date:

Monday, June 10, 2013

  Actual Average (KBNA) Record (KBNA)
Temperature  
Mean Temperature 80 °F -  
Max Temperature 87 °F 84 °F 98 °F (1953)
Min Temperature 73 °F 63 °F 50 °F (1988)
Cooling Degree Days 15    
Growing Degree Days 30 (Base 50)    
Moisture  
Dew Point 74 °F    
Average Humidity 80    
Maximum Humidity 100    
Minimum Humidity 55    
Precipitation  
Precipitation 0.00 in - - ()
Sea Level Pressure  
Sea Level Pressure 29.91 in    
Wind  
Wind Speed 8 mph (SW)    
Max Wind Speed 21 mph    
Max Gust Speed -    
Visibility 9 miles    
Events      
Averages and records for this station are not official NWS values.
T = Trace of Precipitation, MM = Missing Value Source: NWS Daily Summary

Daily Weather History Graph

Daily Weather History Graph

Search for Another Location

Airport or City:

Trip Planner

Search our weather history database for the weather conditions in past years. The results will help you decide how hot, cold, wet, or windy it might be!

Date:

Astronomy

Jun. 10, 2013 Rise Set
Actual Time 5:32 AM CDT 8:03 PM CDT
Civil Twilight 5:02 AM CDT 8:33 PM CDT
Nautical Twilight 4:25 AM CDT 9:10 PM CDT
Astronomical Twilight 3:45 AM CDT 9:51 PM CDT
Moon 7:18 AM CDT (6/10) 9:34 PM CDT (6/10)
Length of Visible Light 15h 30m
Length of Day
14h 31m
Waxing Crescent, 4% of the Moon is Illuminated
Jun 10
Waxing Crescent
Jun 16
First Quarter
Jun 23
Full
Jun 29
Last Quarter
Jul 8
New

Hourly Weather History & Observations

Time (CDT) Temp. Heat Index Dew Point Humidity Pressure Visibility Wind Dir Wind Speed Gust Speed Precip Events Conditions
12:35 AM - - - N/A% 29.89 in 10.0 mi South 6.9 mph - N/A   Overcast
12:55 AM - - - N/A% 29.89 in 7.0 mi SW 6.9 mph - N/A   Mostly Cloudy
1:15 AM - - - N/A% 29.89 in 4.0 mi Variable 3.5 mph - N/A   Overcast
1:35 AM - - - N/A% 29.88 in 2.0 mi Calm Calm - N/A   Overcast
1:55 AM - - - N/A% 29.87 in 1.5 mi SSE 5.8 mph - N/A   Overcast
2:15 AM - - - N/A% 29.87 in 2.5 mi SW 8.1 mph - N/A   Mostly Cloudy
2:35 AM - - - N/A% 29.88 in 9.0 mi SW 8.1 mph - N/A   Overcast
2:55 AM - - - N/A% 29.87 in 10.0 mi SW 6.9 mph - N/A   Overcast
3:15 AM - - - N/A% 29.87 in 10.0 mi SSW 10.4 mph - N/A   Overcast
3:35 AM - - - N/A% 29.88 in 10.0 mi SW 11.5 mph - N/A   Overcast
3:55 AM - - - N/A% 29.88 in 10.0 mi SSW 11.5 mph - N/A   Overcast
4:15 AM - - - N/A% 29.87 in 10.0 mi SSW 8.1 mph - N/A   Overcast
4:35 AM - - - N/A% 29.88 in 10.0 mi SSW 9.2 mph - N/A   Mostly Cloudy
4:55 AM - - - N/A% 29.89 in 10.0 mi SW 10.4 mph - N/A   Overcast
5:15 AM - - - N/A% 29.90 in 10.0 mi SW 6.9 mph - N/A   Mostly Cloudy
5:35 AM - - - N/A% 29.91 in 10.0 mi WSW 6.9 mph - N/A   Scattered Clouds
5:55 AM - - - N/A% 29.91 in 10.0 mi SW 9.2 mph - N/A   Partly Cloudy
6:15 AM - - - N/A% 29.92 in 10.0 mi SW 6.9 mph - N/A   Partly Cloudy
6:35 AM - - - N/A% 29.92 in 10.0 mi SW 8.1 mph - N/A   Clear
6:55 AM - - - N/A% 29.92 in 10.0 mi SW 8.1 mph - N/A   Clear
7:15 AM - - - N/A% 29.93 in 10.0 mi WSW 9.2 mph - N/A   Partly Cloudy
7:35 AM - - - N/A% 29.94 in 10.0 mi WSW 6.9 mph - N/A   Mostly Cloudy
7:55 AM - - - N/A% 29.94 in 10.0 mi WSW 5.8 mph - N/A   Overcast
8:15 AM - - - N/A% 29.95 in 10.0 mi WSW 6.9 mph - N/A   Mostly Cloudy
8:35 AM - - - N/A% 29.95 in 10.0 mi WSW 6.9 mph - N/A   Partly Cloudy
8:55 AM 75.2 °F - 75.2 °F 100% 29.95 in 10.0 mi WSW 8.1 mph - N/A   Unknown
9:15 AM 75.2 °F - 75.2 °F 100% 29.95 in 10.0 mi WSW 6.9 mph - N/A   Clear
9:35 AM 77.0 °F - 77.0 °F 100% 29.94 in 10.0 mi SW 8.1 mph - N/A   Clear
9:55 AM 78.8 °F - 77.0 °F 94% 29.94 in 10.0 mi SW 5.8 mph - N/A   Clear
10:15 AM 80.6 °F 85.4 °F 73.4 °F 79% 29.94 in 10.0 mi WSW 9.2 mph - N/A   Clear
10:35 AM 80.6 °F 85.4 °F 73.4 °F 79% 29.94 in 10.0 mi SW 11.5 mph - N/A   Clear
10:55 AM 80.6 °F 84.6 °F 71.6 °F 74% 29.94 in 10.0 mi WSW 10.4 mph - N/A   Clear
11:15 AM 82.4 °F 87.2 °F 71.6 °F 70% 29.93 in 10.0 mi WSW 10.4 mph - N/A   Clear
11:35 AM 82.4 °F 86.3 °F 69.8 °F 66% 29.93 in 10.0 mi WSW 9.2 mph - N/A   Clear
11:55 AM 84.2 °F 89.6 °F 71.6 °F 66% 29.93 in 10.0 mi SSW 9.2 mph - N/A   Clear
12:15 PM 84.2 °F 89.6 °F 71.6 °F 66% 29.93 in 10.0 mi SSW 12.7 mph - N/A   Clear
12:35 PM 84.2 °F 89.6 °F 71.6 °F 66% 29.93 in 10.0 mi SSW 13.8 mph - N/A   Clear
12:55 PM 84.2 °F 89.6 °F 71.6 °F 66% 29.92 in 10.0 mi SSW 12.7 mph - N/A   Partly Cloudy
1:15 PM 84.2 °F 89.6 °F 71.6 °F 66% 29.92 in 10.0 mi SSW 15.0 mph - N/A   Partly Cloudy
1:35 PM 84.2 °F 89.6 °F 71.6 °F 66% 29.91 in 10.0 mi SSW 10.4 mph - N/A   Clear
1:55 PM 86.0 °F 90.4 °F 69.8 °F 58% 29.90 in 10.0 mi SSW 15.0 mph - N/A   Clear
2:15 PM 86.0 °F 90.4 °F 69.8 °F 58% 29.88 in 10.0 mi SW 16.1 mph - N/A   Clear
2:35 PM 87.8 °F 92.6 °F 69.8 °F 55% 29.87 in 10.0 mi SSW 20.7 mph - N/A   Clear
2:55 PM 86.0 °F 90.4 °F 69.8 °F 58% 29.87 in 10.0 mi SW 18.4 mph - N/A   Clear
3:15 PM 87.8 °F 92.6 °F 69.8 °F 55% 29.87 in 10.0 mi SW 17.3 mph - N/A   Clear
3:35 PM 84.2 °F 88.4 °F 69.8 °F 62% 29.86 in 10.0 mi SW 17.3 mph - N/A   Clear
3:55 PM 84.2 °F 88.4 °F 69.8 °F 62% 29.86 in 10.0 mi SW 15.0 mph - N/A   Scattered Clouds
4:15 PM 84.2 °F 89.6 °F 71.6 °F 66% 29.86 in 10.0 mi SW 16.1 mph - N/A   Clear
4:35 PM 78.8 °F - 75.2 °F 89% 29.87 in 9.0 mi SW 15.0 mph - N/A   Partly Cloudy
4:55 PM 82.4 °F 94.0 °F 80.6 °F 94% 29.88 in 10.0 mi WSW 12.7 mph - N/A   Partly Cloudy
5:15 PM 80.6 °F 89.3 °F 80.6 °F 100% 29.88 in 10.0 mi SW 10.4 mph - N/A   Clear
5:35 PM 82.4 °F 92.4 °F 78.8 °F 89% 29.88 in 10.0 mi SSW 12.7 mph - N/A   Clear
5:55 PM 82.4 °F 89.5 °F 75.2 °F 79% 29.88 in 10.0 mi SW 13.8 mph - N/A   Partly Cloudy
6:15 PM 78.8 °F - 78.8 °F 100% 29.88 in 10.0 mi SW 6.9 mph - N/A   Clear
6:35 PM 78.8 °F - 78.8 °F 100% 29.88 in 10.0 mi SW 8.1 mph - N/A   Clear
6:55 PM 78.8 °F - 78.8 °F 100% 29.89 in 6.0 mi SW 9.2 mph - N/A   Mostly Cloudy
7:15 PM 77.0 °F - 77.0 °F 100% 29.89 in 10.0 mi SW 11.5 mph - N/A   Scattered Clouds
7:35 PM 75.2 °F - 75.2 °F 100% 29.90 in 10.0 mi SW 15.0 mph - N/A   Mostly Cloudy
7:55 PM 73.4 °F - 73.4 °F 100% 29.89 in 10.0 mi SW 13.8 mph - N/A   Scattered Clouds
8:15 PM 73.4 °F - 73.4 °F 100% 29.92 in 4.0 mi WSW 9.2 mph - N/A   Unknown
8:35 PM - - - N/A% 29.91 in 7.0 mi SSW 4.6 mph - N/A   Mostly Cloudy
8:55 PM - - - N/A% 29.92 in 10.0 mi SSW 3.5 mph - N/A   Scattered Clouds
9:15 PM - - - N/A% 29.92 in 10.0 mi SSW 5.8 mph - N/A   Partly Cloudy
9:35 PM - - - N/A% 29.93 in 10.0 mi Variable 4.6 mph - N/A   Clear
9:55 PM - - - N/A% 29.94 in 10.0 mi Calm Calm - N/A   Partly Cloudy
10:15 PM - - - N/A% 29.94 in 10.0 mi NE 3.5 mph - N/A   Scattered Clouds
10:35 PM - - - N/A% 29.95 in 1.2 mi WSW 6.9 mph - N/A   Overcast
10:55 PM - - - N/A% 29.95 in 10.0 mi Calm Calm - N/A   Mostly Cloudy
11:15 PM - - - N/A% 29.96 in 10.0 mi Calm Calm - N/A   Mostly Cloudy
11:35 PM - - - N/A% 29.95 in 4.0 mi Calm Calm - N/A   Mostly Cloudy
11:55 PM - - - N/A% 29.95 in 5.0 mi Calm Calm - N/A   Scattered Clouds